Tracking 30009 objects as of 8-Dec-2024
HD Live streaming from Space Station
objects crossing your sky now

GLOBAL-19

Track GLOBAL-19 now!
10-day predictions


NORAD ID: 55982
Int'l Code: 2023-041B
Perigee: 454.7 km
Apogee: 460.2 km
Inclination: 42.0 °
Period: 93.6 minutes
Semi major axis: 6828 km
RCS: Unknown
Launch date: March 24, 2023
Source: United States (US)
Launch site: Rocket Lab Launch Complex (RLLC)
Your satellite tracking list
Your tracking list is empty




NASA's NSSDC Master Catalog

Two Line Element Set (TLE):
1 55982U 23041B   24342.06646823  .00030977  00000-0  79866-3 0  9994
2 55982  42.0055 212.3628 0004035 323.1882  36.8680 15.38565182 96112
Source of the keplerian elements: AFSPC